This demonstration page uses our WeatherBlox Daily Observations layout. Learn more.

Left ArrowRight Arrow

Hourly Observations for June 24, 2021

Temp ( °F °C ) Dew Point ( °F °C ) Humidity (%) Winds ( mph kmh ) Pressure ( in mb ) Visibility ( mi km ) Precip ( " mm )
12:53 am 00:53 Clear 61 16.1 54 12.2 78 78 E 3 6 30.14 1021 10 16 N/A
1:53 am 01:53 Clear 60 15.6 54 12.2 80 80 N N/A 30.16 1021 10 16 N/A
2:53 am 02:53 Clear 59 15 54 12.2 83 83 ESE 3 6 30.16 1022 10 16 N/A
3:53 am 03:53 Clear 57 13.9 55 12.8 93 93 N N/A 30.16 1021 10 16 N/A
4:53 am 04:53 Clear 56 13.3 54 12.2 93 93 N N/A 30.15 1021 10 16 N/A
5:53 am 05:53 Clear with Light Rain 56 13.3 54 12.2 93 93 N N/A 30.15 1021 10 16 0.00 0.00
6:53 am 06:53 Sunny 58 14.4 55 12.8 90 90 N N/A 30.16 1021 10 16 0.00 0.00
7:53 am 07:53 Sunny 65 18.3 54 12.2 68 68 N N/A 30.16 1021 10 16 N/A
8:53 am 08:53 Sunny 70 21.1 54 12.2 57 57 N N/A 30.16 1021 10 16 N/A
9:53 am 09:53 Sunny 74 23.3 57 13.9 56 56 N N/A 30.17 1022 10 16 N/A
10:53 am 10:53 Sunny 79 26.1 59 15 50 50 VRB 3 6 30.16 1021 10 16 N/A
11:53 am 11:53 Sunny 81 27.2 60 15.6 49 49 undefined N/A 30.15 1021 N/A N/A
12:53 pm 12:53 Sunny 83 28.3 60 15.6 46 46 SSW 8 13 30.13 1020 10 16 N/A
1:53 pm 13:53 Sunny 83 28.3 63 17.2 51 51 VRB 5 7 30.11 1020 10 16 N/A
2:53 pm 14:53 Sunny 84 28.9 63 17.2 49 49 VRB 7 11 30.11 1020 10 16 N/A
3:53 pm 15:53 Partly Cloudy 83 28.3 63 17.2 51 51 VRB 7 11 30.10 1019 10 16 N/A
4:53 pm 16:53 Mostly Sunny 83 28.3 63 17.2 51 51 SW 8 13 30.10 1019 10 16 N/A
5:53 pm 17:53 Sunny 82 27.8 63 17.2 53 53 VRB 3 6 30.10 1019 10 16 N/A
6:53 pm 18:53 Sunny 81 27.2 65 18.3 58 58 SSW 6 9 30.09 1019 10 16 N/A
7:53 pm 19:53 Sunny 79 26.1 66 18.9 65 65 SW 3 6 30.09 1019 10 16 N/A
8:53 pm 20:53 Sunny 73 22.8 67 19.4 81 81 N N/A 30.08 1019 10 16 N/A
9:53 pm 21:53 Clear 70 21.1 66 18.9 87 87 N N/A 30.09 1019 10 16 N/A
10:53 pm 22:53 Clear 69 20.6 66 18.9 90 90 N N/A 30.09 1019 10 16 N/A
11:53 pm 23:53 Clear 76 24.4 64 17.8 67 67 N N/A 30.06 1018 10 16 N/A

Powered by AerisWeather